#timestamp,LO_Frequency,Hit,StdDev 
1607137215.0,286046999.0,N
1607137216.0,286046999.0,N
1607137235.8,286046998.6,N
1607137255.6,286047000.0,N
1607137275.5,286047000.9,N
1607137295.3,286046999.4,N
1607137315.1,286046999.4,N
1607137335.9,286046999.8,N
1607137355.7,286047000.1,N
1607137375.6,286047002.1,N
1607137395.4,286046999.8,N
1607137415.2,286047002.2,N
1607137435.1,286047004.1,N
1607137436.0,286047004.1,N
1607137455.8,286047001.9,N
1607137475.6,286047000.1,N
1607137495.5,286046998.9,N
1607137515.3,286046998.6,N
1607137535.2,286047000.6,N
1607137555.9,286047002.5,N
1607137575.7,286046998.6,N
1607137595.6,286047000.6,N
1607137615.4,286047000.8,N
1607137635.2,286047002.4,N
1607137655.1,286047003.2,N
1607137656.0,286047003.2,N
1607137675.8,286047003.9,N
1607137695.7,286047002.0,N
1607137715.5,286047006.0,Y
1607137735.3,286047003.0,P
1607137755.2,286047004.3,P
1607137775.0,286047003.6,N
1607137775.9,286047003.6,N
1607137795.8,286047001.3,N
1607137815.6,286047001.4,N
1607137835.4,286047003.1,N
1607137855.3,286047001.3,N
1607137875.1,286047002.0,N
1607137895.8,286047004.0,Y
1607137915.7,286047000.3,P
1607137935.5,286046998.2,N
1607137955.4,286046998.6,N
1607137975.2,286046996.5,N
1607137995.0,286046995.6,N
1607137995.9,286046995.6,N
1607138015.8,286046993.7,N
1607138035.6,286046995.9,N
1607138055.5,286046989.4,Y
1607138075.3,286046989.6,P
1607138095.1,286046989.1,N
1607138115.9,286046986.9,P
1607138135.7,286046986.8,Y
1607138155.5,286046995.6,P
1607138175.4,286046995.7,N
1607138195.2,286046999.8,N
1607138215.1,286047001.7,N
1607138216.0,286047001.7,N
1607138235.8,286047003.7,N
1607138255.6,286047001.8,N
1607138275.5,286047001.9,N
1607138295.3,286047003.8,N
1607138315.1,286046998.1,N
1607138335.9,286046995.8,N
1607138355.7,286046995.6,N
1607138375.6,286046998.2,N
1607138395.4,286047002.1,N
1607138415.2,286047002.8,N
1607138435.1,286046998.5,N
1607138436.0,286046998.5,N
1607138455.8,286047003.4,N
1607138475.7,286047002.9,N
1607138495.5,286047005.5,N
1607138515.3,286047003.2,N
1607138535.2,286047002.9,N
1607138555.9,286047001.5,N
1607138575.7,286047004.2,N
1607138595.6,286047003.8,N
1607138615.4,286047005.7,N
1607138635.2,286047003.1,N
1607138655.1,286047005.0,N
1607138656.0,286047005.0,N
1607138675.8,286047005.7,N
1607138695.7,286047006.5,N
1607138715.5,286047007.9,N
1607138735.3,286047009.5,Y
1607138755.2,286047006.9,P
1607138775.0,286047005.4,N
1607138775.9,286047005.4,N
1607138795.8,286047003.0,N
1607138815.6,286047006.0,Y
1607138835.4,286046998.8,P
1607138855.3,286047000.3,N
1607138875.1,286047003.6,N
1607138895.9,286047002.1,N
1607138915.7,286047001.4,N
1607138935.5,286047002.7,N
1607138955.4,286047002.1,N
1607138975.2,286047002.0,N
1607138995.0,286047002.3,N
1607138995.9,286047002.3,N
1607139015.8,286047000.0,N
1607139035.6,286046998.5,N
1607139055.5,286046999.0,N
1607139075.3,286046997.2,N
1607139095.1,286046992.2,Y
1607139115.9,286046989.7,P
1607139135.7,286046986.8,N
1607139155.6,286046984.4,N
1607139175.4,286046985.7,N
1607139195.2,286046987.7,N
1607139215.1,286046990.3,N
1607139216.0,286046990.3,N
1607139235.8,286046996.2,N
1607139255.6,286046998.8,N
1607139275.5,286046995.0,N
1607139295.3,286046999.1,N
1607139315.2,286046998.0,N
1607139335.9,286046997.0,N
1607139355.7,286046997.3,N
1607139375.6,286046994.0,N
1607139395.4,286046996.0,N
1607139415.2,286046993.9,N
1607139435.1,286046994.9,N
1607139436.0,286046994.9,N
1607139455.8,286046997.1,N
1607139475.7,286046997.1,N
1607139495.5,286046994.3,N
1607139515.3,286046994.9,N
1607139535.2,286046993.7,N
1607139555.0,286046990.7,N
1607139555.9,286046990.7,N
1607139575.7,286046991.8,N
1607139595.6,286046993.7,N
1607139615.4,286046993.6,N
1607139635.3,286046996.1,N
1607139655.1,286046995.2,N
1607139656.0,286046995.2,N
1607139675.8,286046998.4,N
1607139695.7,286046996.7,N
1607139715.5,286046999.2,N
1607139735.4,286047000.9,N
1607139755.2,286047000.9,N
1607139775.0,286047001.9,N
1607139775.9,286047001.9,N
1607139795.8,286047004.0,N
1607139815.6,286046999.8,N
1607139835.4,286046998.9,N
1607139855.3,286046998.2,N
1607139875.1,286046999.0,N
1607139895.9,286046995.0,N
1607139915.7,286046993.7,N
1607139935.5,286046989.4,Y
1607139955.4,286046992.6,P
1607139975.2,286046994.4,N
1607139995.1,286046994.3,P
1607139996.0,286046994.3,Y
1607140015.8,286047001.8,P
1607140035.6,286047001.8,N
1607140055.5,286047002.8,N
1607140075.3,286047000.2,N
1607140095.1,286047003.1,N
1607140115.9,286047005.1,N
1607140135.7,286047005.0,N
1607140155.6,286047003.5,N
1607140175.4,286046998.8,N
1607140195.2,286046996.5,N
1607140215.1,286047000.1,N
1607140216.0,286047000.1,N
1607140235.8,286047002.3,N
1607140255.7,286046999.0,N
1607140275.5,286046997.9,N
1607140295.3,286047000.6,N
1607140315.2,286047002.2,N
1607140335.9,286046998.6,N
1607140355.7,286047011.9,Y
1607140375.6,286046998.2,P
1607140395.4,286047000.8,N
1607140415.3,286047003.7,P
1607140435.1,286047001.6,N
1607140436.0,286047001.6,N
1607140455.8,286047000.1,N
1607140475.7,286046998.1,N
1607140495.5,286046996.5,N
1607140515.3,286047000.3,N
1607140535.2,286047001.8,N
1607140555.0,286047002.9,N
1607140555.9,286047002.9,N
1607140575.8,286047005.4,N
1607140595.6,286047004.6,N
1607140615.4,286047005.0,N
1607140635.3,286047002.1,N
1607140655.1,286046996.5,N
1607140675.9,286046998.6,N
1607140695.7,286046997.8,N
1607140715.5,286046995.1,N
1607140735.4,286046999.3,N
1607140755.2,286047000.7,N
1607140775.0,286047000.7,N
1607140775.9,286047000.7,N
1607140795.8,286047001.1,N
